2016 CY247

Initial reported observation by Pan-STARRS 1, Haleakala on 2016-02-12.
(Discoverer will be defined when the object is numbered. See this note on how discoverers are determined.)

Orbit

Orbit type: Amor
Near-Earth Object

Note: WebGL enabled browser required.

epoch2019-04-27.0
epoch JD2458600.5
perihelion date2019-01-20.62341
perihelion JD2458504.12341
argument of perihelion (°)149.45638
ascending node (°)335.18061
inclination (°)11.92407
eccentricity0.4527840
perihelion distance (AU)1.1336677
Tisserand w.r.t. Jupiter3.6
ΔV w.r.t. Earth (km/sec)7.0
semimajor axis (AU)2.0717005
mean anomaly (°)31.85554
mean daily motion (°/day)0.33053190
aphelion distance (AU)3.010
period (years)2.98
P-vector [x]-0.57297798
P-vector [y]0.70397795
P-vector [z]0.41965614
Q-vector [x]-0.81496894
Q-vector [y]-0.43521580
Q-vector [z]-0.38263930
absolute magnitude23.9
phase slope0.15
uncertainty1
referenceMPO 466800
observations used44
oppositions2
arc length (days)1093
first opposition used2016
last opposition used2019
residual rms (arc-secs)0.33
perturbers coarse indicatorM-v
perturbers precise indicator0038h
first observation date used2016-02-12.0
last observation date used2019-02-09.0
computer nameMPCW
JD of orbit computation2458525.135244
perihelion JD uncertainty (days)5.2992E-05
argument of perihelion uncertainty (°)6.2084E-05
ascending node uncertainty (°)1.2286E-05
inclination uncertainty (°)1.2890E-05
eccentricity uncertainty 6.7354E-08
perihelion distance uncertainty (AU)1.3848E-07
Minimum Orbit Intersection Distances (in AU)
for orbit epoch: 2458600.5, reference: MPO466800
Mercury0.80245
Venus0.41806
Earth0.17014
Mars0.28119
Jupiter2.09788
Saturn6.94341
Uranus16.4975
Neptune27.0665

Observations

44 total observations over interval: 2016 02 12.35347 – 2019 02 09.39746
These data are available for download (format description).

Date (UT) J2000 RA J2000 Dec Magn Location Ref
2016 02 12.35347 08 59 10.295 +38 38 55.99 21.5 w F51 – Pan-STARRS 1, Haleakala MPS 682896
2016 02 12.36498 08 59 10.770 +38 37 54.27 21.6 w F51 – Pan-STARRS 1, Haleakala MPS 682896
2016 02 12.37769 08 59 11.286 +38 36 45.59 21.4 w F51 – Pan-STARRS 1, Haleakala MPS 682896
2016 02 13.244832 09 00 10.058 +37 17 40.94 21.1 R 568 – Maunakea MPS 682896
2016 02 13.245866 09 00 10.116 +37 17 35.46 20.9 R 568 – Maunakea MPS 682896
2016 02 13.246903 09 00 10.167 +37 17 29.95 20.8 R 568 – Maunakea MPS 682896
2016 02 13.50046 09 00 19.71 +36 54 08.4 21.5 R 291 – LPL/Spacewatch II MPS 682896
2016 02 13.50239 09 00 19.79 +36 53 57.3 20.6 R 291 – LPL/Spacewatch II MPS 682896
2016 02 13.50433 09 00 19.87 +36 53 46.3 20.5 R 291 – LPL/Spacewatch II MPS 682896
2016 02 16.269477 09 03 21.101 +32 42 26.00 21.2 R 568 – Maunakea MPS 682896
2016 02 16.270515 09 03 21.146 +32 42 20.46 21.0 R 568 – Maunakea MPS 682896
2016 02 16.271552 09 03 21.198 +32 42 14.93 21.0 R 568 – Maunakea MPS 682896
2016 02 16.28020 09 03 19.05 +32 41 26.7 20.9 R 926 – Tenagra II Observatory, Nogales MPS 682896
2016 02 16.28715 09 03 19.23 +32 40 48.7 20.8 R 926 – Tenagra II Observatory, Nogales MPS 682896
2016 02 16.29376 09 03 19.56 +32 40 12.9 20.6 R 926 – Tenagra II Observatory, Nogales MPS 682896
2016 02 26.235642 09 13 26.47 +18 36 53.6 20.1 R 705 – Apache Point MPS 686174
2016 02 26.236650 09 13 26.53 +18 36 48.8 19.2 R 705 – Apache Point MPS 686174
2016 02 26.237659 09 13 26.56 +18 36 44.6 20.3 R 705 – Apache Point MPS 686174
2016 02 28.20762 09 15 27.09 +16 10 15.3 21.2 V G96 – Mt. Lemmon Survey MPS 686957
2016 02 28.21225 09 15 27.36 +16 09 56.3 21.9 V G96 – Mt. Lemmon Survey MPS 686957
2016 02 28.22149 09 15 27.73 +16 09 15.2 21.7 V G96 – Mt. Lemmon Survey MPS 686957
2016 02 28.36417 09 15 34.31 +15 58 56.5 21.1 V G96 – Mt. Lemmon Survey MPS 686957
2016 02 28.36937 09 15 34.59 +15 58 33.5 21.2 V G96 – Mt. Lemmon Survey MPS 686957
2016 02 28.37458 09 15 34.88 +15 58 11.4 21.8 V G96 – Mt. Lemmon Survey MPS 686957
2016 02 28.37983 09 15 35.13 +15 57 48.3 21.1 V G96 – Mt. Lemmon Survey MPS 686957
2016 03 01.166790 09 17 26.90 +13 52 50.2 22.0 V H21 – Astronomical Research Observatory, Westfield MPS 686957
2016 03 01.176029 09 17 27.34 +13 52 12.6 22.3 V H21 – Astronomical Research Observatory, Westfield MPS 686957
2016 03 01.187620 09 17 27.88 +13 51 25.6 21.7 V H21 – Astronomical Research Observatory, Westfield MPS 686957
2019 01 17.519292 11 33 16.648 +43 38 30.78 22.2 G F51 – Pan-STARRS 1, Haleakala MPS 967478
2019 01 17.527294 11 33 17.082 +43 38 06.42 22.2 G F51 – Pan-STARRS 1, Haleakala MPS 967478
2019 01 17.535309 11 33 17.519 +43 37 41.75 22.3 G F51 – Pan-STARRS 1, Haleakala MPS 967478
2019 01 17.543447 11 33 17.942 +43 37 16.36 22.4 G F51 – Pan-STARRS 1, Haleakala MPS 967478
2019 01 27.571577 11 39 45.023 +33 43 36.73 21.8 G F51 – Pan-STARRS 1, Haleakala MPS 967478
2019 01 27.581869 11 39 44.925 +33 42 55.24 21.8 G F51 – Pan-STARRS 1, Haleakala MPS 967478
2019 01 27.592521 11 39 44.742 +33 42 14.05 22.1 G F51 – Pan-STARRS 1, Haleakala MPS 967478
2019 02 08.41808 11 34 26.81 +19 45 15.8 21.6 G G96 – Mt. Lemmon Survey MPS 967478
2019 02 08.42331 11 34 26.40 +19 44 52.8 21.9 G G96 – Mt. Lemmon Survey MPS 967478
2019 02 08.42853 11 34 26.01 +19 44 29.7 21.6 G G96 – Mt. Lemmon Survey MPS 967478
2019 02 08.52445 11 34 19.35 +19 37 22.5 22.0 G G96 – Mt. Lemmon Survey MPS 967478
2019 02 08.52652 11 34 19.17 +19 37 13.4 21.8 G G96 – Mt. Lemmon Survey MPS 967478
2019 02 09.38817 11 33 33.20 +18 33 52.4 21.6 G V06 – Catalina Sky Survey-Kuiper MPS 969872
2019 02 09.39127 11 33 32.97 +18 33 38.9 21.3 G V06 – Catalina Sky Survey-Kuiper MPS 969872
2019 02 09.39437 11 33 32.76 +18 33 25.1 21.4 G V06 – Catalina Sky Survey-Kuiper MPS 969872
2019 02 09.39746 11 33 32.50 +18 33 11.5 21.3 G V06 – Catalina Sky Survey-Kuiper MPS 969872